Regional Weather Roundup
Issued by NWS

Home | Current Version | Previous Version | Graphics & Text | Print | Product List | Glossary Off
Versions: 1 2 3 4 5 6 7 8 9 10 11 12 13 14 15 16 17 18 19 20 21 22 23 24 25 26 27 28 29 30 31 32 33 34 35 36 37 38 39 40 41 42 43 44 45 46 47 48 49 50

000
ASUS43 KMKX 270600
RWRWI

WISCONSIN REGIONAL WEATHER ROUNDUP
NATIONAL WEATHER SERVICE MILWAUKEE/SULLIVAN WI
100 AM CDT SAT AUG 27 2016

NOTE: "FAIR" INDICATES FEW OR NO CLOUDS BELOW 12,000 FEET WITH NO
SIGNIFICANT WEATHER AND/OR OBSTRUCTIONS TO VISIBILITY.

WIZ001-002-006>008-014>016-023>028-270700-
NORTHWEST WISCONSIN

CITY           SKY/WX    TMP DP  RH WIND       PRES   REMARKS
SUPERIOR ARPT  FAIR      54  54  99 CALM      30.12S
ASHLAND        FAIR      54  52  93 CALM      30.14F
6HR MIN TEMP:  53; 6HR MAX TEMP:  65;

HAYWARD        FAIR      53  52  96 CALM      30.15S
6HR MIN TEMP:  53; 6HR MAX TEMP:  68;

SIREN          FAIR      57  55  93 CALM      30.13S
CUMBERLAND     FAIR      57  54  88 CALM      30.13F
RICE LAKE      FAIR      58  56  94 CALM      30.15S
CHETEK         NOT AVBL
LADYSMITH      FAIR      57  55  93 CALM      30.16F
EAU CLAIRE     NOT AVBL
MENOMONIE      FAIR      61  58  92 CALM      30.12F
6HR MIN TEMP:  60; 6HR MAX TEMP:  68;

NEW RICHMOND   FAIR      60  56  89 CALM      30.12S
OSCEOLA        FAIR      60  60 100 CALM      30.15S
$$

WIZ003>005-009-010-017-018-270700-
NORTH CENTRAL WISCONSIN

CITY           SKY/WX    TMP DP  RH WIND       PRES   REMARKS
MANITOWISH WTR NOT AVBL
ARBOR VITAE    FAIR      57  55  92 CALM      30.17F
WOODRUFF       FAIR      57  55  92 CALM      30.17F
RHINELANDER    FAIR      56  56 100 CALM      30.17F
6HR MIN TEMP:  54; 6HR MAX TEMP:  66;

EAGLE RIVER    FAIR      51  51 100 CALM      30.17F
LAND O LAKES   FAIR      49  49 100 CALM      30.19S
PHILLIPS       FAIR      54  53  99 CALM      30.16S
6HR MIN TEMP:  53; 6HR MAX TEMP:  64;

TOMAHAWK       FAIR      52  51  96 CALM      30.17F
MEDFORD        FAIR      56  56 100 CALM      30.15F
MERRILL        FAIR      57  56  99 CALM      30.17S
6HR MIN TEMP:  57; 6HR MAX TEMP:  66;

$$

WIZ029-030-035-036-043>047-270700-
CENTRAL WISCONSIN

CITY           SKY/WX    TMP DP  RH WIND       PRES   REMARKS
WAUSAU         FAIR      60  57  89 E3        30.14F
6HR MIN TEMP:  60; 6HR MAX TEMP:  67;

MOSINEE        FAIR      59  59 100 CALM      30.17S
MARSHFIELD     LGT RAIN  61  57  87 CALM      30.15S
6HR MIN TEMP:  61; 6HR MAX TEMP:  67; 6HR PCP: TRACE;

STEVENS POINT  LGT RAIN  58  58  97 CALM      30.16S
WAUPACA        CLOUDY    64  63  96 CALM      30.16R
WAUTOMA        LGT RAIN  63  61  93 CALM      30.15S
6HR MIN TEMP:  62; 6HR MAX TEMP:  67;

WISC RAPIDS    LGT RAIN  61  60  97 CALM      30.17R
6HR MIN TEMP:  60; 6HR MAX TEMP:  67; 6HR PCP:  0.02;

CAMP DOUGLAS   HVY RAIN  62  61  98 SW7       30.15R
6HR MIN TEMP:  62; 6HR MAX TEMP:  68; 6HR PCP:  0.02;

$$

WIZ011>013-019>022-031-037>040-048>050-270700-
NORTHEAST WISCONSIN

CITY           SKY/WX    TMP DP  RH WIND       PRES   REMARKS
ANTIGO         FAIR      56  55  97 CALM      30.17F
SHAWANO        MOCLDY    62  58  88 CALM      30.15F
OCONTO         NOT AVBL
STURGEON BAY   CLOUDY    63  59  87 SW3       30.16S
6HR MIN TEMP:  62; 6HR MAX TEMP:  69;

GREEN BAY      CLOUDY    62  62 100 CALM      30.15S
6HR MIN TEMP:  61; 6HR MAX TEMP:  68;

MANITOWOC      NOT AVBL
APPLETON       CLOUDY    64  54  68 CALM      30.14S
CLINTONVILLE   FAIR      61  59  94 CALM      30.15S
OSHKOSH        CLOUDY    65  59  81 S3        30.15R
6HR MIN TEMP:  63; 6HR MAX TEMP:  70;

$$

WIZ032>034-041-042-053>061-270700-
SOUTHWEST WISCONSIN

CITY           SKY/WX    TMP DP  RH WIND       PRES   REMARKS
LA CROSSE      LGT RAIN  65  63  93 S6        30.13S
6HR MIN TEMP:  65; 6HR MAX TEMP:  73; 6HR PCP:  0.04;

SPARTA         LGT RAIN  61  61  99 CALM      30.15S
VIROQUA        CLOUDY    61  60  97 E5        30.15F
6HR MIN TEMP:  61; 6HR MAX TEMP:  67; 6HR PCP:  0.14;

BOSCOBEL       LGT RAIN  65  63  93 CALM      30.13R
6HR MIN TEMP:  65; 6HR MAX TEMP:  69; 6HR PCP:  0.03;

PRAIRIE DU CHI LGT RAIN  64  60  88 CALM      30.12F
PLATTEVILLE    CLOUDY    66  63  91 E8        30.12S
$$

WIZ056-057-062-063-064-067-068-270700-
SOUTH CENTRAL WISCONSIN

CITY           SKY/WX    TMP DP  RH WIND       PRES   REMARKS
REEDSBURG      NOT AVBL
BARABOO/DELLS  CLOUDY    63  61  93 CALM      30.14S
LONE ROCK      NOT AVBL
MINERAL POINT  CLOUDY    66  61  82 E8        30.12F
MADISON        CLOUDY    66  60  81 MISG      30.13R
6HR MIN TEMP:  65; 6HR MAX TEMP:  69; 6HR PCP: TRACE;

MIDDLETON      CLOUDY    65  61  85 NE5       30.14R
WATERTOWN      MOCLDY    64  60  86 E5        30.13S
MONROE         CLOUDY    64  61  88 E6        30.11F
JANESVILLE     MOCLDY    66  63  88 E7        30.10F
$$

WIZ051-052-058>065-066-070>072-270700-
SOUTHEAST WISCONSIN

CITY           SKY/WX    TMP DP  RH WIND       PRES   REMARKS
MILWAUKEE      MOCLDY    68  62  81 CALM      30.14R
6HR MIN TEMP:  65; 6HR MAX TEMP:  70;

WAUKESHA       MOCLDY    63  57  82 E3        30.15R
MILWAUKEE/TIMM FAIR      64  57  77 CALM      30.14S
RACINE         RAIN      68  61  78 E6        30.15R
6HR MIN TEMP:  65; 6HR MAX TEMP:  71; 6HR PCP:  0.01;

BURLINGTON     LGT RAIN  64  59  83 E7        30.12F
KENOSHA        CLOUDY    66  62  87 E9        30.12F
6HR MIN TEMP:  64; 6HR MAX TEMP:  70; 6HR PCP:  0.05;

FOND DU LAC    CLOUDY    64  60  87 CALM      30.15R
6HR MIN TEMP:  62; 6HR MAX TEMP:  70;

SHEBOYGAN      CLOUDY    63  59  87 CALM      30.15S
6HR MIN TEMP:  59; 6HR MAX TEMP:  70;

WEST BEND      CLOUDY    61  59  94 CALM      30.15S
JUNEAU         CLOUDY    64  58  81 CALM      30.15S
$$

LSZ147-162-270700-
LAKE SUPERIOR

STATION/POSITION TIME  TEMP    WIND        PRES    WAVE
                       AIR SEA DIR/SP/G            HT/PER
                 (UTC) (F)     (DEG/KT/KT) (MB)    (FT/S)
W MID LAKE BUOY  0450   66 67  160/ 10/ 12 1020.4R   1
DEVILS ISLAND    0500   64     150/  7/  9 1020.4F
PORT WING        0500   62     120/  3/  5 1020.3R
SAXON HARBOR     0540   58     200/  5/  7 1020.3F
$$

LMZ867-665-643>646-270700-
LAKE MICHIGAN

STATION/POSITION TIME  TEMP    WIND        PRES    WAVE
                       AIR SEA DIR/SP/G            HT/PER
                 (UTC) (F)     (DEG/KT/KT) (MB)    (FT/S)
CHAMBERS ISLAND  0500   63     230/  2/  2 1020.7S
S GREEN BAY BUOY 0530   68 72  300/  4/  6 1020.2F
N MID LAKE BUOY  0450   68 71   50/  4/  6 1020.7R   1
NORTHPORT PIER   0500   64     220/  3/  4 1020.7S
SISTER BAY       0507   67        CALM       N/A
KEWAUNEE LAKESHO 0500   63     360/  1/  2 1020.2F
SHEBOYGAN LAKESH 0500   65      CALM  /  1 1020.6S
PORT WASHINGTON  0500   65      CALM  /  1 1021.0F
ATWATER BUOY     0500   58     330/  4/  4   N/A
MILWAUKEE LAKESH 0510   65      40/  5/  6   N/A
S MID LAKE BUOY  0450   72 75   60/ 14/ 16 1019.6F   1/ 2
KENOSHA   LAKESH 0500   69      60/  7/  9 1020.0F
$$

TC  - TEMPERATURE IN CELSIUS
VSB - VISIBILITY IN STATUTE MILES
WCI - WIND CHILL INDEX
HX  - HEAT INDEX





USA.gov is the U.S. government's official web portal to all federal, state and local government web resources and services.